Weather History for Fayetteville, AR

Change the Weather History Date:

Tuesday, October 18, 2011

  Actual Average Record
Temperature  
Mean Temperature 50 °F 57 °F  
Max Temperature 57 °F 70 °F 89 °F (2005)
Min Temperature 44 °F 45 °F 29 °F (2009)
Degree Days  
Heating Degree Days 14 8  
Month to date heating degree days 116  
Since 1 July heating degree days 168  
Cooling Degree Days 0 0  
Month to date cooling degree days 18  
Year to date cooling degree days 1301  
Moisture  
Dew Point 41 °F    
Average Humidity 80    
Maximum Humidity 100    
Minimum Humidity 45    
Precipitation  
Precipitation 0.17 in 0.15 in 1.00 in (1960)
Month to date precipitation 2.54  
Year to date precipitation 39.25  
Sea Level Pressure  
Sea Level Pressure 29.92 in    
Wind  
Wind Speed 10 mph (North)    
Max Wind Speed 17 mph    
Max Gust Speed 24 mph    
Visibility 9 miles    
Events Rain , Thunderstorm    
T = Trace of Precipitation, MM = Missing Value Source: NWS Daily Summary

Daily Weather History Graph

Daily Weather History Graph

Search for Another Location

Airport:

Trip Planner

Search our weather history database for the weather conditions in past years. The results will help you decide how hot, cold, wet, or windy it might be!

Date:

Astronomy

Oct. 18, 2011 Rise Set
Actual Time 7:25 AM CDT 6:37 PM CDT
Civil Twilight 6:59 AM CDT 7:03 PM CDT
Nautical Twilight 6:30 AM CDT 7:32 PM CDT
Astronomical Twilight 6:00 AM CDT 8:02 PM CDT
Moon 11:25 PM CDT (10/18) 1:10 PM CDT (10/18)
Length of Visible Light 12h 03m
Length of Day
11h 11m
Waning Gibbous, 64% of the Moon is Illuminated
Oct 18
Waning Gibbous
Oct 19
Last Quarter
Oct 26
New
Nov 2
First Quarter
Nov 10
Full

Hourly Weather History & Observations

Time (CDT) Temp. Windchill Dew Point Humidity Pressure Visibility Wind Dir Wind Speed Gust Speed Precip Events Conditions
12:53 AM 48.0 °F - 44.1 °F 86% 29.79 in 10.0 mi East 15.0 mph - 0.02 in   Scattered Clouds
1:45 AM 46.4 °F 43.5 °F 44.6 °F 93% 29.85 in 10.0 mi Variable 5.8 mph - N/A   Overcast
1:53 AM 46.0 °F 43.1 °F 43.0 °F 89% 29.83 in 10.0 mi North 5.8 mph - N/A   Overcast
2:02 AM 46.4 °F 44.3 °F 42.8 °F 87% 29.86 in 10.0 mi North 4.6 mph - N/A Thunderstorm Overcast
2:17 AM 46.4 °F 42.9 °F 42.8 °F 87% 29.87 in 10.0 mi North 6.9 mph - 0.00 in Rain Light Rain
2:40 AM 46.4 °F 41.9 °F 44.6 °F 93% 29.87 in 6.0 mi North 9.2 mph - 0.02 in Rain Rain
2:53 AM 46.0 °F 41.4 °F 44.1 °F 93% 29.85 in 10.0 mi North 9.2 mph - 0.02 in Rain Light Rain
3:15 AM 44.6 °F 39.7 °F 42.8 °F 93% 29.88 in 10.0 mi North 9.2 mph 18.4 mph N/A Rain Light Rain
3:34 AM 44.6 °F 39.7 °F 44.6 °F 100% 29.88 in 4.0 mi North 9.2 mph - 0.03 in Rain Rain
3:53 AM 45.0 °F 40.1 °F 44.1 °F 97% 29.86 in 3.0 mi NNE 9.2 mph - 0.06 in Rain Rain
4:53 AM 45.0 °F 39.3 °F 44.1 °F 97% 29.88 in 5.0 mi North 11.5 mph 21.9 mph 0.05 in Rain Light Rain
4:57 AM 44.6 °F 38.8 °F 44.6 °F 100% 29.91 in 5.0 mi North 11.5 mph 21.9 mph 0.00 in Rain Light Rain
5:04 AM 44.6 °F 37.4 °F 42.8 °F 93% 29.91 in 5.0 mi North 16.1 mph 23.0 mph 0.00 in Rain Light Rain
5:53 AM 44.1 °F 37.1 °F 42.1 °F 93% 29.91 in 9.0 mi North 15.0 mph 20.7 mph 0.01 in Rain Light Rain
6:12 AM 44.6 °F 38.8 °F 42.8 °F 93% 29.93 in 10.0 mi North 11.5 mph 18.4 mph 0.00 in   Overcast
6:53 AM 44.6 °F 40.2 °F 42.8 °F 93% 29.94 in 5.0 mi North 8.1 mph 18.4 mph N/A Rain Light Rain
7:17 AM 44.6 °F 40.7 °F 44.6 °F 100% 29.95 in 6.0 mi North 6.9 mph - 0.00 in Rain Light Rain
7:35 AM 44.6 °F 40.2 °F 44.6 °F 100% 29.94 in 6.0 mi North 8.1 mph - 0.01 in Rain Light Rain
7:47 AM 44.6 °F 39.7 °F 44.6 °F 100% 29.94 in 10.0 mi North 9.2 mph - 0.01 in   Overcast
7:53 AM 44.1 °F 40.8 °F 44.1 °F 100% 29.92 in 10.0 mi Variable 5.8 mph - 0.01 in   Overcast
8:03 AM 44.6 °F 40.7 °F 44.6 °F 100% 29.94 in 10.0 mi North 6.9 mph - N/A   Overcast
8:53 AM 45.0 °F 40.6 °F 45.0 °F 100% 29.95 in 10.0 mi North 8.1 mph - N/A   Overcast
9:53 AM 46.0 °F 41.4 °F 46.0 °F 100% 29.97 in 10.0 mi NNW 9.2 mph - N/A   Overcast
10:53 AM 48.9 °F - 42.1 °F 77% 29.98 in 10.0 mi NNW 13.8 mph 20.7 mph N/A   Overcast
11:53 AM 51.8 °F - 41.0 °F 67% 29.99 in 10.0 mi NNW 16.1 mph 23.0 mph N/A   Mostly Cloudy
12:53 PM 54.0 °F - 41.0 °F 62% 29.96 in 10.0 mi NNW 16.1 mph 20.7 mph N/A   Mostly Cloudy
1:53 PM 57.0 °F - 39.9 °F 53% 29.94 in 10.0 mi NNW 17.3 mph 21.9 mph N/A   Mostly Cloudy
2:53 PM 55.9 °F - 39.9 °F 55% 29.93 in 10.0 mi NNW 13.8 mph 19.6 mph N/A   Overcast
3:53 PM 55.4 °F - 37.4 °F 51% 29.93 in 10.0 mi NNW 13.8 mph 24.2 mph N/A   Mostly Cloudy
4:53 PM 55.9 °F - 35.1 °F 45% 29.92 in 10.0 mi NW 13.8 mph 24.2 mph N/A   Mostly Cloudy
5:53 PM 55.0 °F - 34.0 °F 45% 29.93 in 10.0 mi NNW 9.2 mph - N/A   Clear
6:53 PM 52.0 °F - 34.0 °F 50% 29.94 in 10.0 mi NW 6.9 mph - N/A   Partly Cloudy
7:53 PM 50.0 °F - 33.1 °F 52% 29.96 in 10.0 mi NNW 8.1 mph - N/A   Clear
8:53 PM 48.0 °F - 33.1 °F 56% 29.97 in 10.0 mi Calm Calm - N/A   Clear
9:53 PM 46.0 °F 41.9 °F 30.0 °F 54% 29.99 in 10.0 mi NNW 8.1 mph - N/A   Clear
10:53 PM 45.0 °F 40.6 °F 30.9 °F 58% 30.00 in 10.0 mi NNW 8.1 mph - N/A   Clear
11:53 PM 44.6 °F 40.2 °F 30.2 °F 57% 29.99 in 10.0 mi North 8.1 mph 18.4 mph N/A   Clear